Tulsa Jones, OK

3:09 PM CST on February 24, 2018 (GMT -0600)
Jones Jr.

Weather History for KRVS - January, 2013

Change the Weather History Date:

Tuesday, January 22, 2013

  Actual Average (KTUL) Record (KTUL)
Temperature  
Mean Temperature 38 °F -  
Max Temperature 54 °F 49 °F 78 °F (1909)
Min Temperature 21 °F 28 °F -16 °F (1930)
Degree Days  
Heating Degree Days 28    
Moisture  
Dew Point 21 °F    
Average Humidity 57    
Maximum Humidity 78    
Minimum Humidity 32    
Precipitation  
Precipitation 0.00 in - - ()
Sea Level Pressure  
Sea Level Pressure 30.29 in    
Wind  
Wind Speed 4 mph (SE)    
Max Wind Speed 12 mph    
Max Gust Speed -    
Visibility 10 miles    
Events      
Averages and records for this station are not official NWS values.
T = Trace of Precipitation, MM = Missing Value Source: NWS Daily Summary

Daily Weather History Graph

Daily Weather History Graph

Search for Another Location

Airport or City:

Trip Planner

Search our weather history database for the weather conditions in past years. The results will help you decide how hot, cold, wet, or windy it might be!

Date:

Astronomy

Jan. 22, 2013 Rise Set
Actual Time 7:30 AM CST 5:40 PM CST
Civil Twilight 7:03 AM CST 6:08 PM CST
Nautical Twilight 6:32 AM CST 6:39 PM CST
Astronomical Twilight 6:01 AM CST 7:09 PM CST
Moon 2:05 PM CST (1/22) 3:52 AM CST (1/22)
Length of Visible Light 11h 04m
Length of Day
10h 09m
Waxing Gibbous, 83% of the Moon is Illuminated
Jan 22
Waxing Gibbous
Jan 26
Full
Feb 3
Last Quarter
Feb 10
New
Feb 17
First Quarter

Hourly Weather History & Observations

Time (CST) Temp. Windchill Dew Point Humidity Pressure Visibility Wind Dir Wind Speed Gust Speed Precip Events Conditions
1:53 AM 25.0 °F 18.1 °F 15.1 °F 66% 30.35 in 10.0 mi NNE 5.8 mph - N/A   Clear
2:53 AM 23.0 °F 18.4 °F 15.1 °F 72% 30.34 in 10.0 mi NE 3.5 mph - N/A   Clear
3:53 AM 24.1 °F 18.2 °F 15.1 °F 69% 30.34 in 10.0 mi NNE 4.6 mph - N/A   Clear
4:53 AM 21.9 °F 17.2 °F 15.1 °F 75% 30.34 in 10.0 mi NNE 3.5 mph - N/A   Clear
5:53 AM 23.0 °F - 16.0 °F 74% 30.34 in 10.0 mi Calm Calm - N/A   Clear
6:53 AM 21.9 °F - 15.1 °F 75% 30.35 in 10.0 mi Calm Calm - N/A   Partly Cloudy
7:53 AM 24.1 °F - 17.1 °F 75% 30.34 in 10.0 mi Calm Calm - N/A   Mostly Cloudy
9:53 AM 33.1 °F 28.7 °F 19.0 °F 56% 30.34 in 10.0 mi Variable 4.6 mph - N/A   Clear
10:53 AM 39.9 °F 32.9 °F 21.9 °F 49% 30.32 in 10.0 mi South 11.5 mph - N/A   Clear
11:53 AM 44.1 °F 40.1 °F 23.0 °F 43% 30.32 in 10.0 mi SSE 6.9 mph - N/A   Clear
12:53 PM 48.0 °F - 24.1 °F 39% 30.28 in 10.0 mi South 6.9 mph - N/A   Clear
1:53 PM 50.0 °F - 24.1 °F 36% 30.24 in 10.0 mi Variable 3.5 mph - N/A   Clear
2:53 PM 53.1 °F - 24.1 °F 32% 30.23 in 10.0 mi South 8.1 mph - N/A   Clear
3:53 PM 54.0 °F - 26.1 °F 34% 30.21 in 10.0 mi South 9.2 mph - N/A   Clear
4:53 PM 54.0 °F - 26.1 °F 34% 30.22 in 10.0 mi South 4.6 mph - N/A   Clear
6:53 PM 41.0 °F 39.0 °F 26.1 °F 55% 30.23 in 10.0 mi ESE 3.5 mph - N/A   Clear
7:53 PM 42.1 °F 40.2 °F 25.0 °F 51% 30.24 in 10.0 mi South 3.5 mph - N/A   Clear
8:53 PM 42.1 °F - 25.0 °F 51% 30.24 in 10.0 mi Calm Calm - N/A   Clear
10:53 PM 30.9 °F - 24.1 °F 76% 30.27 in 10.0 mi Calm Calm - N/A   Clear
11:53 PM 28.9 °F - 23.0 °F 78% 30.27 in 10.0 mi Calm Calm - N/A   Clear